カタログに戻る

ONEWEB-0555

運用中通信PO
NORAD 56057·PAYLOAD·🇬🇧 United Kingdom

打ち上げ Mar 26, 2023 から Satish Dhawan Space Centre

Loading…

次のパス (今後24時間)

TLE

最新Source: CelesTrak SupGP

元期: Sep 14, 2026, 17:45 UTC

1 56057C 23043M   26257.73973796  .00002857  00000+0  74827-2 0  2576
2 56057  87.9146 210.9905 0001866  95.3104 302.9961 13.16587891    19

AllMySatでONEWEB-0555をリアルタイム追跡

Download on the App Store